sat.trackr.live / text

‹ back to catalog

STARLINK-4710

NORAD 53799 · 2022-111AC

PAYLOAD ACTIVE UNKNOWN

§ Identity

Operator
Country
US
Launch date
2022-09-11
Launch site
AFETR
Launch vehicle
Mass (kg)
RCS (m²)

Purposes: comms

External: N2YO · Heavens-Above · Gunter

§ Orbital elements

Epoch: 2026-09-20T22:16:59.266272Z

Period
93.87 min
Inclination
53.1604°
Eccentricity
0.0000962
Mean motion
15.34003761 rev/d
Perigee alt
463.2 km
Apogee alt
464.5 km
Semi-major
6,842.0 km
B*
1.6682e-3
RAAN
92.0616°
Arg perigee
115.8934°
Mean anomaly
244.2167°
Rev number
22,350

§ Raw data

STARLINK-47101 53799U 22111AC  26263.92846373  .00055699  00000+0  16682-2 0  99992 53799  53.1604  92.0616 0000962 115.8934 244.2167 15.34003761223504

JSON: /api/v1/satellites/53799 · /tle

For live sub-satellite position, see the globe view (requires WebGL).

§ Visibility from observer

Set your observer location to see the next 7 days of passes ≥ 10°. The values pass through the URL so the page stays shareable.

No JS? Fill the form by hand. The geolocation button needs JavaScript.